| time (UTC) | temp F | wind direction | speed MPH | gust MPH | rain 1hr in | rain 24hr in | rain mn in | humidity % | barometer mb |
| 20260505124504 | 54 | 296 | 7.0 | 15.0 | 0.00 | 0.00 | 0.00 | 42 | 1010.0 |
| 20260505124004 | 54 | 296 | 8.0 | 14.0 | 0.00 | 0.00 | 0.00 | 43 | 1010.0 |
| 20260505123504 | 54 | 311 | 8.0 | 14.0 | 0.00 | 0.00 | 0.00 | 44 | 1010.0 |
| 20260505122506 | 53 | 313 | 11.0 | 19.0 | 0.00 | 0.00 | 0.00 | 45 | 1009.0 |
| 20260505122005 | 53 | 305 | 10.0 | 19.0 | 0.00 | 0.00 | 0.00 | 44 | 1009.0 |
| 20260505120006 | 54 | 303 | 8.0 | 16.0 | 0.00 | 0.00 | 0.00 | 45 | 1010.0 |
| 20260505115505 | 54 | 308 | 9.0 | 17.0 | 0.00 | 0.00 | 0.00 | 45 | 1009.0 |
| 20260505114504 | 54 | 307 | 9.0 | 18.0 | 0.00 | 0.00 | 0.00 | 44 | 1009.0 |
| 20260505114005 | 54 | 290 | 8.0 | 15.0 | 0.00 | 0.00 | 0.00 | 45 | 1009.0 |
| 20260505113504 | 54 | 277 | 7.0 | 15.0 | 0.00 | 0.00 | 0.00 | 46 | 1009.0 |
| 20260505113005 | 54 | 292 | 6.0 | 11.0 | 0.00 | 0.00 | 0.00 | 45 | 1009.0 |
| 20260505112505 | 55 | 282 | 6.0 | 11.0 | 0.00 | 0.00 | 0.00 | 50 | 1009.0 |
| 20260505111505 | 54 | 268 | 5.0 | 11.0 | 0.00 | 0.00 | 0.00 | 48 | 1009.0 |
| 20260505102006 | 53 | 307 | 8.0 | 14.0 | 0.00 | 0.00 | 0.00 | 46 | 1009.0 |
| 20260505101505 | 54 | 311 | 9.0 | 15.0 | 0.00 | 0.00 | 0.00 | 47 | 1009.0 |
| 20260505101005 | 53 | 311 | 8.0 | 15.0 | 0.00 | 0.00 | 0.00 | 48 | 1009.0 |
| 20260505100005 | 53 | 279 | 7.0 | 18.0 | 0.00 | 0.00 | 0.00 | 46 | 1009.0 |
| 20260505095505 | 54 | 301 | 7.0 | 18.0 | 0.00 | 0.00 | 0.00 | 46 | 1009.0 |
| 20260505095004 | 54 | 305 | 7.0 | 15.0 | 0.00 | 0.00 | 0.00 | 45 | 1009.0 |
| 20260505094505 | 54 | 301 | 8.0 | 16.0 | 0.00 | 0.00 | 0.00 | 47 | 1009.0 |
| 20260505093005 | 54 | 260 | 5.0 | 11.0 | 0.00 | 0.00 | 0.00 | 47 | 1010.0 |
| 20260505092505 | 54 | 276 | 5.0 | 11.0 | 0.00 | 0.00 | 0.00 | 48 | 1010.0 |
| 20260505092005 | 54 | 300 | 7.0 | 14.0 | 0.00 | 0.00 | 0.00 | 50 | 1010.0 |
| 20260505091505 | 53 | 303 | 6.0 | 14.0 | 0.00 | 0.00 | 0.00 | 49 | 1010.0 |
| 20260505091004 | 54 | 299 | 7.0 | 14.0 | 0.00 | 0.00 | 0.00 | 49 | 1010.0 |
| 20260505090505 | 53 | 297 | 7.0 | 14.0 | 0.00 | 0.00 | 0.00 | 50 | 1010.0 |
| 20260505090005 | 54 | 295 | 6.0 | 11.0 | 0.00 | 0.00 | 0.00 | 50 | 1010.0 |
| 20260505085505 | 54 | 280 | 6.0 | 10.0 | 0.00 | 0.00 | 0.00 | 53 | 1010.0 |
| 20260505084505 | 53 | 274 | 5.0 | 10.0 | 0.00 | 0.00 | 0.00 | 53 | 1010.0 |
| 20260505084006 | 53 | 289 | 5.0 | 10.0 | 0.00 | 0.00 | 0.00 | 56 | 1010.0 |
| 20260505083505 | 53 | 309 | 6.0 | 11.0 | 0.00 | 0.00 | 0.00 | 56 | 1010.0 |
| 20260505083005 | 53 | 308 | 6.0 | 11.0 | 0.00 | 0.00 | 0.00 | 54 | 1010.0 |
| 20260505082504 | 53 | 299 | 6.0 | 10.0 | 0.00 | 0.00 | 0.00 | 56 | 1010.0 |
| 20260505082005 | 53 | 300 | 6.0 | 10.0 | 0.00 | 0.00 | 0.00 | 57 | 1010.0 |
| 20260505081004 | 52 | 309 | 11.0 | 24.0 | 0.00 | 0.00 | 0.00 | 59 | 1010.0 |
| 20260505080007 | 52 | 295 | 7.0 | 16.0 | 0.00 | 0.00 | 0.00 | 59 | 1010.0 |
| 20260505075504 | 52 | 304 | 7.0 | 16.0 | 0.00 | 0.00 | 0.00 | 58 | 1009.0 |
| 20260505075006 | 52 | 309 | 7.0 | 14.0 | 0.00 | 0.00 | 0.00 | 58 | 1009.0 |
| 20260505074505 | 52 | 307 | 6.0 | 14.0 | 0.00 | 0.00 | 0.00 | 59 | 1009.0 |
| 20260505074005 | 52 | 303 | 5.0 | 12.0 | 0.00 | 0.00 | 0.00 | 63 | 1009.0 |
| 20260505073505 | 52 | 310 | 7.0 | 13.0 | 0.00 | 0.00 | 0.00 | 62 | 1009.0 |
| 20260505073007 | 52 | 293 | 6.0 | 13.0 | 0.00 | 0.00 | 0.00 | 62 | 1009.0 |
| 20260505072505 | 52 | 272 | 6.0 | 10.0 | 0.00 | 0.00 | 0.00 | 64 | 1009.0 |
| 20260505072005 | 51 | 291 | 6.0 | 10.0 | 0.00 | 0.00 | 0.00 | 64 | 1009.0 |
| 20260505071504 | 51 | 304 | 7.0 | 15.0 | 0.00 | 0.00 | 0.00 | 64 | 1009.0 |
| 20260505071005 | 51 | 311 | 9.0 | 15.0 | 0.00 | 0.00 | 0.00 | 63 | 1009.0 |
| 20260505070505 | 51 | 314 | 7.0 | 15.0 | 0.00 | 0.00 | 0.00 | 62 | 1009.0 |
| 20260505070005 | 51 | 307 | 4.0 | 8.0 | 0.00 | 0.00 | 0.00 | 65 | 1009.0 |
| 20260505065005 | 50 | 306 | 5.0 | 14.0 | 0.00 | 0.00 | 0.00 | 69 | 1009.0 |
| 20260505064504 | 50 | 295 | 6.0 | 11.0 | 0.00 | 0.00 | 0.00 | 66 | 1009.0 |
| 20260505064005 | 50 | 281 | 6.0 | 11.0 | 0.00 | 0.00 | 0.00 | 66 | 1009.0 |
| 20260505063004 | 50 | 274 | 4.0 | 11.0 | 0.00 | 0.00 | 0.00 | 68 | 1009.0 |
| 20260505062504 | 49 | 254 | 4.0 | 11.0 | 0.00 | 0.00 | 0.00 | 70 | 1009.0 |
| 20260505062004 | 49 | 268 | 6.0 | 13.0 | 0.00 | 0.00 | 0.00 | 72 | 1009.0 |
| 20260505061504 | 50 | 284 | 6.0 | 13.0 | 0.00 | 0.00 | 0.00 | 71 | 1009.0 |
| 20260505061004 | 50 | 294 | 5.0 | 11.0 | 0.00 | 0.00 | 0.00 | 72 | 1009.0 |
| 20260505060504 | 49 | 275 | 4.0 | 11.0 | 0.00 | 0.00 | 0.00 | 74 | 1009.0 |
| 20260505055005 | 48 | 307 | 7.0 | 13.0 | 0.00 | 0.00 | 0.00 | 78 | 1009.0 |
| 20260505053504 | 48 | 306 | 7.0 | 11.0 | 0.00 | 0.00 | 0.00 | 80 | 1008.0 |
| 20260505052504 | 48 | 305 | 4.0 | 11.0 | 0.00 | 0.00 | 0.00 | 82 | 1009.0 |
| 20260505052005 | 47 | 288 | 3.0 | 9.0 | 0.00 | 0.00 | 0.00 | 85 | 1009.0 |
| 20260505051505 | 47 | 268 | 3.0 | 9.0 | 0.00 | 0.00 | 0.00 | 85 | 1009.0 |
| 20260505051004 | 47 | 266 | 4.0 | 9.0 | 0.00 | 0.00 | 0.00 | 86 | 1008.0 |
| 20260505050504 | 47 | 276 | 3.0 | 7.0 | 0.00 | 0.00 | 0.00 | 86 | 1008.0 |
| 20260505041505 | 46 | 267 | 6.0 | 14.0 | 0.00 | 0.00 | 0.00 | 85 | 1008.0 |
| 20260505041005 | 46 | 258 | 6.0 | 9.0 | 0.00 | 0.00 | 0.00 | 85 | 1008.0 |
| 20260505040504 | 46 | 258 | 6.0 | 9.0 | 0.00 | 0.00 | 0.00 | 86 | 1008.0 |
| 20260505035005 | 46 | 262 | 3.0 | 9.0 | 0.00 | 0.00 | 0.00 | 86 | 1008.0 |
| 20260505034505 | 46 | 259 | 5.0 | 10.0 | 0.00 | 0.00 | 0.00 | 86 | 1008.0 |
| 20260505034004 | 46 | 256 | 5.0 | 11.0 | 0.00 | 0.00 | 0.00 | 86 | 1006.9 |
| 20260505033006 | 46 | 272 | 5.0 | 12.0 | 0.00 | 0.06 | 0.00 | 85 | 1006.9 |
| 20260505032505 | 46 | 260 | 7.0 | 16.0 | 0.00 | 0.06 | 0.00 | 85 | 1008.0 |
| 20260505032004 | 46 | 257 | 7.0 | 17.0 | 0.00 | 0.06 | 0.00 | 85 | 1008.0 |
| 20260505031505 | 46 | 260 | 7.0 | 17.0 | 0.00 | 0.06 | 0.00 | 86 | 1008.0 |
| 20260505031006 | 46 | 259 | 7.0 | 15.0 | 0.00 | 0.06 | 0.00 | 86 | 1008.0 |
| 20260505030005 | 46 | 271 | 7.0 | 11.0 | 0.00 | 0.06 | 0.00 | 86 | 1008.0 |
| 20260505025006 | 46 | 267 | 6.0 | 12.0 | 0.00 | 0.06 | 0.00 | 87 | 1008.0 |
| 20260505024504 | 46 | 266 | 6.0 | 13.0 | 0.00 | 0.06 | 0.00 | 87 | 1008.0 |
| 20260505024005 | 46 | 270 | 5.0 | 13.0 | 0.00 | 0.06 | 0.00 | 87 | 1008.0 |
| 20260505023506 | 46 | 277 | 4.0 | 12.0 | 0.00 | 0.06 | 0.00 | 87 | 1008.0 |
| 20260505022504 | 46 | 267 | 6.0 | 14.0 | 0.00 | 0.06 | 0.00 | 87 | 1008.0 |
| 20260505022007 | 46 | 263 | 6.0 | 14.0 | 0.00 | 0.06 | 0.00 | 87 | 1008.0 |
| 20260505021504 | 46 | 260 | 4.0 | 10.0 | 0.00 | 0.06 | 0.00 | 87 | 1008.0 |
| 20260505020505 | 46 | 264 | 5.0 | 9.0 | 0.00 | 0.06 | 0.00 | 87 | 1009.0 |
| 20260505020005 | 46 | 270 | 4.0 | 8.0 | 0.00 | 0.06 | 0.00 | 86 | 1009.0 |
| 20260505015504 | 46 | 265 | 4.0 | 11.0 | 0.00 | 0.06 | 0.00 | 86 | 1009.0 |
| 20260505015006 | 46 | 263 | 4.0 | 16.0 | 0.00 | 0.06 | 0.00 | 87 | 1009.0 |
| 20260505014005 | 46 | 270 | 6.0 | 12.0 | 0.00 | 0.06 | 0.00 | 87 | 1009.0 |
| 20260505013504 | 46 | 262 | 5.0 | 14.0 | 0.00 | 0.06 | 0.00 | 87 | 1009.0 |
| 20260505013005 | 46 | 270 | 5.0 | 14.0 | 0.00 | 0.06 | 0.00 | 87 | 1009.0 |
| 20260505012504 | 46 | 276 | 5.0 | 13.0 | 0.00 | 0.06 | 0.00 | 87 | 1010.0 |
| 20260505012006 | 46 | 261 | 3.0 | 13.0 | 0.00 | 0.11 | 0.00 | 87 | 1010.0 |
| 20260505011005 | 46 | 260 | 5.0 | 12.0 | 0.00 | 0.11 | 0.00 | 87 | 1009.0 |
| 20260505010504 | 46 | 260 | 6.0 | 12.0 | 0.00 | 0.11 | 0.00 | 87 | 1009.0 |
| 20260505010005 | 46 | 268 | 6.0 | 12.0 | 0.00 | 0.11 | 0.00 | 87 | 1009.0 |
| 20260505005504 | 46 | 266 | 5.0 | 11.0 | 0.00 | 0.11 | 0.00 | 87 | 1009.0 |
| 20260505005006 | 46 | 266 | 4.0 | 11.0 | 0.00 | 0.11 | 0.00 | 87 | 1009.0 |
| 20260505004505 | 46 | 273 | 3.0 | 8.0 | 0.00 | 0.11 | 0.00 | 86 | 1009.0 |
| 20260505004005 | 46 | 268 | 3.0 | 9.0 | 0.00 | 0.11 | 0.00 | 86 | 1010.0 |
| 20260505003504 | 46 | 260 | 5.0 | 13.0 | 0.00 | 0.11 | 0.00 | 86 | 1010.0 |
| 20260505003005 | 46 | 263 | 5.0 | 13.0 | 0.00 | 0.11 | 0.00 | 87 | 1010.0 |
| 20260505002504 | 46 | 263 | 5.0 | 8.0 | 0.00 | 0.11 | 0.00 | 87 | 1009.0 |
| 20260505002005 | 46 | 254 | 6.0 | 14.0 | 0.00 | 0.11 | 0.00 | 87 | 1009.0 |
| 20260505001504 | 46 | 259 | 6.0 | 14.0 | 0.00 | 0.11 | 0.00 | 87 | 1009.0 |
| 20260505001005 | 46 | 268 | 6.0 | 10.0 | 0.00 | 0.11 | 0.00 | 87 | 1010.0 |
| 20260505000505 | 46 | 271 | 6.0 | 11.0 | 0.00 | 0.11 | 0.00 | 87 | 1010.0 |
| 20260505000005 | 45 | 270 | 7.0 | 11.0 | 0.00 | 0.11 | 0.00 | 87 | 1010.0 |
| 20260504235505 | 45 | 261 | 6.0 | 10.0 | 0.00 | 0.11 | 0.00 | 87 | 1010.0 |
| 20260504235005 | 45 | 269 | 5.0 | 12.0 | 0.00 | 0.16 | 0.00 | 87 | 1010.0 |
| 20260504234504 | 45 | 270 | 3.0 | 12.0 | 0.00 | 0.16 | 0.00 | 87 | 1010.0 |
| 20260504234005 | 45 | 264 | 3.0 | 10.0 | 0.00 | 0.16 | 0.00 | 87 | 1010.0 |
| 20260504233005 | 46 | 266 | 4.0 | 14.0 | 0.00 | 0.16 | 0.00 | 87 | 1010.0 |
| 20260504232504 | 46 | 267 | 6.0 | 14.0 | 0.00 | 0.16 | 0.00 | 87 | 1010.0 |
| 20260504232005 | 46 | 261 | 6.0 | 12.0 | 0.00 | 0.16 | 0.00 | 87 | 1010.0 |
| 20260504231504 | 46 | 255 | 5.0 | 10.0 | 0.00 | 0.16 | 0.00 | 87 | 1010.0 |
| 20260504231004 | 46 | 268 | 5.0 | 12.0 | 0.00 | 0.16 | 0.00 | 87 | 1010.0 |
| 20260504230505 | 46 | 273 | 6.0 | 12.0 | 0.00 | 0.16 | 0.00 | 87 | 1010.0 |
| 20260504230006 | 46 | 268 | 6.0 | 11.0 | 0.00 | 0.16 | 0.00 | 87 | 1010.0 |
| 20260504225506 | 46 | 266 | 6.0 | 10.0 | 0.00 | 0.16 | 0.00 | 86 | 1010.0 |
| 20260504225005 | 46 | 258 | 6.0 | 10.0 | 0.00 | 0.16 | 0.00 | 86 | 1010.0 |
| 20260504224504 | 46 | 255 | 4.0 | 10.0 | 0.00 | 0.16 | 0.00 | 85 | 1010.0 |
| 20260504224005 | 46 | 268 | 4.0 | 10.0 | 0.00 | 0.16 | 0.00 | 84 | 1010.0 |
| 20260504223006 | 46 | 262 | 3.0 | 10.0 | 0.00 | 0.16 | 0.00 | 83 | 1010.0 |
| 20260504222505 | 46 | 278 | 2.0 | 10.0 | 0.00 | 0.16 | 0.00 | 83 | 1010.0 |
| 20260504222004 | 46 | 267 | 3.0 | 10.0 | 0.00 | 0.16 | 0.00 | 82 | 1010.0 |
| 20260504221504 | 46 | 260 | 3.0 | 10.0 | 0.00 | 0.16 | 0.00 | 82 | 1010.0 |
| 20260504220505 | 46 | 270 | 4.0 | 10.0 | 0.00 | 0.16 | 0.00 | 81 | 1010.0 |
| 20260504215505 | 46 | 263 | 6.0 | 14.0 | 0.00 | 0.16 | 0.16 | 81 | 1010.0 |
| 20260504214505 | 46 | 267 | 6.0 | 14.0 | 0.00 | 0.16 | 0.16 | 82 | 1010.0 |
| 20260504214005 | 47 | 264 | 6.0 | 10.0 | 0.00 | 0.16 | 0.16 | 82 | 1010.0 |
| 20260504213504 | 47 | 264 | 6.0 | 14.0 | 0.00 | 0.16 | 0.16 | 82 | 1010.0 |
| 20260504212505 | 47 | 257 | 4.0 | 9.0 | 0.00 | 0.16 | 0.16 | 83 | 1010.0 |
| 20260504212005 | 47 | 267 | 4.0 | 9.0 | 0.00 | 0.16 | 0.16 | 82 | 1010.0 |
| 20260504211504 | 47 | 270 | 4.0 | 9.0 | 0.00 | 0.16 | 0.16 | 82 | 1010.0 |
| 20260504210504 | 47 | 261 | 4.0 | 10.0 | 0.00 | 0.16 | 0.16 | 82 | 1010.0 |
| 20260504210004 | 47 | 266 | 5.0 | 10.0 | 0.00 | 0.16 | 0.16 | 83 | 1010.0 |
| 20260504205505 | 47 | 265 | 5.0 | 11.0 | 0.00 | 0.16 | 0.16 | 83 | 1010.0 |
| 20260504205006 | 47 | 264 | 5.0 | 11.0 | 0.00 | 0.16 | 0.16 | 83 | 1010.0 |
| 20260504203506 | 47 | 269 | 4.0 | 10.0 | 0.00 | 0.16 | 0.16 | 83 | 1010.0 |
| 20260504203005 | 47 | 270 | 5.0 | 11.0 | 0.00 | 0.16 | 0.16 | 83 | 1010.0 |
| 20260504202504 | 47 | 272 | 5.0 | 11.0 | 0.00 | 0.16 | 0.16 | 83 | 1010.0 |
| 20260504202004 | 47 | 270 | 4.0 | 10.0 | 0.00 | 0.16 | 0.16 | 82 | 1010.0 |
| 20260504201504 | 47 | 273 | 5.0 | 10.0 | 0.00 | 0.16 | 0.16 | 81 | 1010.0 |
| 20260504201005 | 47 | 270 | 6.0 | 10.0 | 0.00 | 0.16 | 0.16 | 81 | 1010.0 |
| 20260504200505 | 47 | 264 | 5.0 | 9.0 | 0.00 | 0.16 | 0.16 | 81 | 1010.0 |
| 20260504200005 | 48 | 270 | 5.0 | 12.0 | 0.00 | 0.16 | 0.16 | 81 | 1010.0 |
| 20260504195504 | 48 | 265 | 6.0 | 12.0 | 0.00 | 0.16 | 0.16 | 80 | 1010.0 |
| 20260504194504 | 48 | 262 | 7.0 | 13.0 | 0.00 | 0.16 | 0.16 | 80 | 1010.0 |
| 20260504194005 | 48 | 262 | 6.0 | 13.0 | 0.00 | 0.16 | 0.16 | 79 | 1010.0 |
| 20260504193005 | 48 | 264 | 5.0 | 10.0 | 0.00 | 0.16 | 0.16 | 79 | 1010.0 |
| 20260504192005 | 48 | 260 | 2.0 | 9.0 | 0.00 | 0.16 | 0.16 | 77 | 1010.0 |
| 20260504191505 | 49 | 268 | 2.0 | 9.0 | 0.00 | 0.16 | 0.16 | 76 | 1010.0 |
| 20260504191005 | 49 | 265 | 1.0 | 5.0 | 0.00 | 0.16 | 0.16 | 76 | 1010.0 |
| 20260504190504 | 49 | 233 | 1.0 | 9.0 | 0.00 | 0.16 | 0.16 | 75 | 1010.0 |
| 20260504190006 | 49 | 248 | 4.0 | 9.0 | 0.00 | 0.16 | 0.16 | 75 | 1010.0 |
| 20260504185004 | 50 | 270 | 5.0 | 13.0 | 0.00 | 0.16 | 0.16 | 74 | 1009.0 |
| 20260504184505 | 50 | 263 | 5.0 | 13.0 | 0.00 | 0.16 | 0.16 | 73 | 1009.0 |
| 20260504184005 | 50 | 263 | 5.0 | 13.0 | 0.00 | 0.16 | 0.16 | 73 | 1009.0 |
| 20260504183504 | 50 | 268 | 6.0 | 19.0 | 0.00 | 0.16 | 0.16 | 73 | 1009.0 |
| 20260504183005 | 51 | 263 | 6.0 | 19.0 | 0.00 | 0.16 | 0.16 | 73 | 1009.0 |
| 20260504182505 | 51 | 261 | 6.0 | 14.0 | 0.00 | 0.16 | 0.16 | 73 | 1009.0 |
| 20260504181504 | 51 | 253 | 6.0 | 13.0 | 0.00 | 0.16 | 0.16 | 72 | 1009.0 |
| 20260504181004 | 51 | 252 | 6.0 | 13.0 | 0.00 | 0.16 | 0.16 | 72 | 1009.0 |
| 20260504180504 | 52 | 254 | 6.0 | 10.0 | 0.00 | 0.16 | 0.16 | 72 | 1009.0 |
| 20260504175504 | 52 | 270 | 6.0 | 13.0 | 0.00 | 0.16 | 0.16 | 71 | 1008.0 |
| 20260504175005 | 52 | 267 | 7.0 | 15.0 | 0.00 | 0.16 | 0.16 | 70 | 1008.0 |
| 20260504174505 | 53 | 270 | 8.0 | 15.0 | 0.00 | 0.16 | 0.16 | 70 | 1008.0 |
| 20260504174005 | 53 | 275 | 7.0 | 14.0 | 0.00 | 0.16 | 0.16 | 69 | 1008.0 |
| 20260504173505 | 53 | 272 | 6.0 | 14.0 | 0.00 | 0.16 | 0.16 | 68 | 1008.0 |
| 20260504172505 | 54 | 265 | 6.0 | 14.0 | 0.00 | 0.16 | 0.16 | 65 | 1009.0 |
| 20260504172006 | 54 | 268 | 5.0 | 12.0 | 0.00 | 0.16 | 0.16 | 64 | 1009.0 |
| 20260504171505 | 54 | 267 | 5.0 | 12.0 | 0.00 | 0.16 | 0.16 | 63 | 1009.0 |
| 20260504171005 | 54 | 266 | 5.0 | 8.0 | 0.00 | 0.16 | 0.16 | 63 | 1009.0 |
| 20260504151005 | 56 | 269 | 8.0 | 15.0 | 0.00 | 0.16 | 0.16 | 57 | 1008.0 |
| 20260504150505 | 56 | 263 | 7.0 | 14.0 | 0.00 | 0.16 | 0.16 | 57 | 1008.0 |
| 20260504141004 | 56 | 270 | 7.0 | 17.0 | 0.00 | 0.16 | 0.16 | 64 | 1008.0 |
| 20260504130504 | 56 | 270 | 6.0 | 11.0 | 0.00 | 0.16 | 0.16 | 70 | 1008.0 |